Weather History for K04W - October, 2012

Change the Weather History Date:

Sunday, October 7, 2012

  Actual Average (KJMR) Record (KJMR)
Temperature  
Mean Temperature 34 °F -  
Max Temperature 50 °F 59 °F 81 °F (1980)
Min Temperature 19 °F 33 °F 13 °F (1987)
Degree Days  
Heating Degree Days 30    
Moisture  
Dew Point 19 °F    
Average Humidity 61    
Maximum Humidity 100    
Minimum Humidity 28    
Precipitation  
Precipitation 0.00 in - - ()
Sea Level Pressure  
Sea Level Pressure 30.03 in    
Wind  
Wind Speed 5 mph (SSW)    
Max Wind Speed 18 mph    
Max Gust Speed 25 mph    
Visibility 10 miles    
Events      
Averages and records for this station are not official NWS values.
T = Trace of Precipitation, MM = Missing Value Source: NWS Daily Summary

Daily Weather History Graph

Daily Weather History Graph

Search for Another Location

Airport or City:

Trip Planner

Search our weather history database for the weather conditions in past years. The results will help you decide how hot, cold, wet, or windy it might be!

Date:

Astronomy

Oct. 07, 2012 Rise Set
Actual Time 7:18 AM CDT 6:39 PM CDT
Civil Twilight 6:48 AM CDT 7:09 PM CDT
Nautical Twilight 6:13 AM CDT 7:43 PM CDT
Astronomical Twilight 5:39 AM CDT 8:18 PM CDT
Moon 11:38 PM CDT (10/7) 2:09 PM CDT (10/7)
Length of Visible Light 12h 20m
Length of Day
11h 20m
Waning Gibbous, 56% of the Moon is Illuminated
Oct 7
Waning Gibbous
Oct 8
Last Quarter
Oct 15
New
Oct 21
First Quarter
Oct 29
Full

Hourly Weather History & Observations

Time (CDT) Temp. Windchill Dew Point Humidity Pressure Visibility Wind Dir Wind Speed Gust Speed Precip Events Conditions
12:15 AM 23.0 °F 18.4 °F 19.4 °F 86% 30.19 in 10.0 mi WSW 3.5 mph - N/A   Clear
12:35 AM 23.0 °F - 19.4 °F 86% 30.18 in 10.0 mi Calm Calm - N/A   Clear
12:55 AM 23.0 °F - 19.4 °F 86% 30.18 in 10.0 mi Calm Calm - N/A   Clear
1:15 AM 21.2 °F - 17.6 °F 86% 30.18 in 10.0 mi Calm Calm - N/A   Clear
1:35 AM 21.2 °F - 19.4 °F 93% 30.18 in 10.0 mi Calm Calm - N/A   Clear
2:15 AM 21.2 °F - 19.4 °F 93% 30.17 in 10.0 mi Calm Calm - N/A   Clear
2:35 AM 21.2 °F - 19.4 °F 93% 30.17 in 10.0 mi Calm Calm - N/A   Clear
2:55 AM 19.4 °F - 17.6 °F 93% 30.16 in 10.0 mi Calm Calm - N/A   Clear
3:15 AM 19.4 °F - 15.8 °F 86% 30.15 in 10.0 mi Calm Calm - N/A   Clear
3:35 AM 19.4 °F - 17.6 °F 93% 30.15 in 10.0 mi Calm Calm - N/A   Clear
3:55 AM 19.4 °F - 17.6 °F 93% 30.14 in 10.0 mi Calm Calm - N/A   Clear
4:15 AM 19.4 °F - 17.6 °F 93% 30.14 in 10.0 mi Calm Calm - N/A   Clear
4:35 AM 19.4 °F - 15.8 °F 86% 30.14 in 10.0 mi Calm Calm - N/A   Clear
4:55 AM 21.2 °F - 19.4 °F 93% 30.13 in 10.0 mi Calm Calm - N/A   Clear
5:15 AM 19.4 °F - 19.4 °F 100% 30.13 in 10.0 mi Calm Calm - N/A   Clear
5:35 AM 21.2 °F - 19.4 °F 93% 30.13 in 10.0 mi Calm Calm - N/A   Clear
5:55 AM 19.4 °F - 19.4 °F 100% 30.13 in 10.0 mi Calm Calm - N/A   Clear
6:15 AM 19.4 °F - 19.4 °F 100% 30.12 in 10.0 mi Calm Calm - N/A   Clear
6:35 AM 19.4 °F - 19.4 °F 100% 30.12 in 10.0 mi Calm Calm - N/A   Clear
6:55 AM 19.4 °F - 19.4 °F 100% 30.11 in 10.0 mi Calm Calm - N/A   Clear
7:15 AM 19.4 °F - 17.6 °F 93% 30.11 in 10.0 mi Calm Calm - N/A   Clear
7:35 AM 19.4 °F - 17.6 °F 93% 30.11 in 10.0 mi Calm Calm - N/A   Clear
7:55 AM 21.2 °F 16.4 °F 21.2 °F 100% 30.11 in 10.0 mi South 3.5 mph - N/A   Clear
8:15 AM 26.6 °F - 23.0 °F 86% 30.10 in 10.0 mi Calm Calm - N/A   Clear
8:35 AM 26.6 °F 22.6 °F 23.0 °F 86% 30.10 in 10.0 mi SSW 3.5 mph - N/A   Scattered Clouds
8:55 AM 28.4 °F 24.6 °F 23.0 °F 80% 30.10 in 10.0 mi SSW 3.5 mph - N/A   Scattered Clouds
9:15 AM 32.0 °F 26.4 °F 24.8 °F 75% 30.10 in 10.0 mi SW 5.8 mph - N/A   Scattered Clouds
9:35 AM 33.8 °F 26.4 °F 24.8 °F 70% 30.09 in 10.0 mi SW 9.2 mph - N/A   Scattered Clouds
9:55 AM 35.6 °F 27.5 °F 24.8 °F 65% 30.09 in 10.0 mi SW 11.5 mph - N/A   Scattered Clouds
10:15 AM 37.4 °F 28.9 °F 24.8 °F 60% 30.08 in 10.0 mi SW 13.8 mph - N/A   Scattered Clouds
10:35 AM 41.0 °F 34.7 °F 23.0 °F 49% 30.08 in 10.0 mi SW 10.4 mph - N/A   Clear
10:55 AM 42.8 °F 35.8 °F 23.0 °F 46% 30.08 in 10.0 mi SW 13.8 mph - N/A   Clear
11:15 AM 42.8 °F 35.4 °F 21.2 °F 42% 30.07 in 10.0 mi WSW 15.0 mph 19.6 mph N/A   Clear
11:35 AM 42.8 °F 35.4 °F 21.2 °F 42% 30.06 in 10.0 mi SW 15.0 mph - N/A   Clear
11:55 AM 44.6 °F 38.8 °F 21.2 °F 39% 30.06 in 10.0 mi SW 11.5 mph - N/A   Clear
12:15 PM 44.6 °F 37.8 °F 21.2 °F 39% 30.06 in 10.0 mi WSW 15.0 mph 21.9 mph N/A   Clear
12:35 PM 46.4 °F 40.1 °F 21.2 °F 37% 30.06 in 10.0 mi SW 15.0 mph 20.7 mph N/A   Clear
12:55 PM 46.4 °F 39.5 °F 19.4 °F 34% 30.05 in 10.0 mi SW 17.3 mph 25.3 mph N/A   Clear
1:15 PM 46.4 °F 40.1 °F 19.4 °F 34% 30.03 in 10.0 mi WSW 15.0 mph 25.3 mph N/A   Clear
1:35 PM 46.4 °F 39.5 °F 19.4 °F 34% 30.02 in 10.0 mi SW 17.3 mph 21.9 mph N/A   Clear
1:55 PM 46.4 °F 39.8 °F 17.6 °F 32% 30.01 in 10.0 mi SSW 16.1 mph 23.0 mph N/A   Clear
2:15 PM 46.4 °F 40.4 °F 17.6 °F 32% 30.00 in 10.0 mi SSW 13.8 mph 21.9 mph N/A   Clear
2:35 PM 48.2 °F - 17.6 °F 30% 29.99 in 10.0 mi WSW 18.4 mph 23.0 mph N/A   Clear
2:55 PM 48.2 °F - 19.4 °F 32% 29.99 in 10.0 mi SW 17.3 mph 24.2 mph N/A   Clear
3:15 PM 46.4 °F 40.1 °F 19.4 °F 34% 29.98 in 10.0 mi SW 15.0 mph 20.7 mph N/A   Clear
3:35 PM 48.2 °F - 19.4 °F 32% 29.96 in 10.0 mi SW 12.7 mph 19.6 mph N/A   Clear
3:55 PM 50.0 °F - 17.6 °F 28% 29.96 in 10.0 mi WSW 16.1 mph 20.7 mph N/A   Clear
4:15 PM 50.0 °F - 19.4 °F 30% 29.95 in 10.0 mi WSW 13.8 mph 19.6 mph N/A   Clear
4:35 PM 50.0 °F - 19.4 °F 30% 29.94 in 10.0 mi SSW 12.7 mph 20.7 mph N/A   Scattered Clouds
4:55 PM 48.2 °F - 19.4 °F 32% 29.94 in 10.0 mi SSW 12.7 mph 16.1 mph N/A   Scattered Clouds
5:15 PM 50.0 °F - 19.4 °F 30% 29.93 in 10.0 mi SSW 12.7 mph 17.3 mph N/A   Clear
5:35 PM 48.2 °F - 19.4 °F 32% 29.93 in 10.0 mi SSW 9.2 mph - N/A   Clear
5:55 PM 48.2 °F - 17.6 °F 30% 29.92 in 10.0 mi SSW 10.4 mph - N/A   Clear
6:15 PM 46.4 °F 42.9 °F 17.6 °F 32% 29.92 in 10.0 mi SSW 6.9 mph - N/A   Scattered Clouds
6:35 PM 44.6 °F 41.4 °F 17.6 °F 34% 29.91 in 10.0 mi South 5.8 mph - N/A   Clear
7:15 PM 41.0 °F 38.0 °F 17.6 °F 39% 29.91 in 10.0 mi South 4.6 mph - N/A   Clear
7:35 PM 39.2 °F 35.9 °F 17.6 °F 42% 29.91 in 10.0 mi South 4.6 mph - N/A   Clear
7:55 PM 37.4 °F 34.9 °F 17.6 °F 45% 29.91 in 10.0 mi SSE 3.5 mph - N/A   Clear
8:15 PM 37.4 °F 34.9 °F 17.6 °F 45% 29.90 in 10.0 mi SSE 3.5 mph - N/A   Clear
8:35 PM 37.4 °F 33.8 °F 17.6 °F 45% 29.90 in 10.0 mi SSE 4.6 mph - N/A   Clear
8:55 PM 37.4 °F 34.9 °F 17.6 °F 45% 29.90 in 10.0 mi SSE 3.5 mph - N/A   Clear
9:15 PM 37.4 °F - 17.6 °F 45% 29.90 in 10.0 mi Calm Calm - N/A   Clear
9:35 PM 32.0 °F - 17.6 °F 55% 29.90 in 10.0 mi Calm Calm - N/A   Clear
9:55 PM 32.0 °F - 17.6 °F 55% 29.89 in 10.0 mi Calm Calm - N/A   Clear
10:15 PM 32.0 °F 28.7 °F 17.6 °F 55% 29.89 in 10.0 mi SSE 3.5 mph - N/A   Clear
10:35 PM 33.8 °F 30.8 °F 19.4 °F 56% 29.88 in 10.0 mi South 3.5 mph - N/A   Clear
10:55 PM 33.8 °F 28.6 °F 19.4 °F 56% 29.88 in 10.0 mi South 5.8 mph - N/A   Clear
11:15 PM 33.8 °F 28.6 °F 19.4 °F 56% 29.86 in 10.0 mi South 5.8 mph - N/A   Clear
11:35 PM 33.8 °F 28.6 °F 19.4 °F 56% 29.85 in 10.0 mi South 5.8 mph - N/A   Clear
11:55 PM 33.8 °F 28.6 °F 19.4 °F 56% 29.85 in 10.0 mi South 5.8 mph - N/A   Clear